Time,TemperatureF,DewpointF,PressureIn,WindDirection,WindDirectionDegrees,WindSpeedMPH,WindSpeedGustMPH,Humidity,HourlyPrecipIn,Conditions,Clouds,dailyrainin,SoftwareType,DateUTC
2013-04-04 00:03:00,52.0,-99.9,29.89,SSE,160,0.0,3.0,0,-99.99,,,-99.99,,2013-04-04 07:03:00,
2013-04-04 00:13:00,52.0,-99.9,29.89,SW,230,0.0,3.0,0,-99.99,,,-99.99,,2013-04-04 07:13:00,
2013-04-04 00:22:00,52.0,-99.9,29.89,SW,230,0.0,3.0,0,-99.99,,,-99.99,,2013-04-04 07:22:00,
2013-04-04 00:32:00,52.0,-99.9,29.89,SW,230,0.0,3.0,0,-99.99,,,-99.99,,2013-04-04 07:32:00,
2013-04-04 00:53:00,51.0,-99.9,29.87,SE,130,0.0,0.0,0,-99.99,,,-99.99,,2013-04-04 07:53:00,
2013-04-04 01:03:00,50.0,-99.9,29.87,SE,130,1.0,1.0,0,-99.99,,,-99.99,,2013-04-04 08:03:00,
2013-04-04 01:12:00,50.0,-99.9,29.86,SE,130,0.0,1.0,0,-99.99,,,-99.99,,2013-04-04 08:12:00,
2013-04-04 01:23:00,50.0,-99.9,29.86,SE,130,1.0,1.0,0,-99.99,,,-99.99,,2013-04-04 08:23:00,
2013-04-04 01:32:00,50.0,-99.9,29.86,SE,130,1.0,1.0,0,-99.99,,,-99.99,,2013-04-04 08:32:00,
2013-04-04 01:44:00,49.0,-99.9,29.85,SSE,155,0.0,2.0,0,-99.99,,,-99.99,,2013-04-04 08:44:00,
2013-04-04 01:53:00,49.0,-99.9,29.85,SSE,155,0.0,2.0,0,-99.99,,,-99.99,,2013-04-04 08:53:00,
2013-04-04 02:03:00,50.0,-99.9,29.85,ESE,120,1.0,2.0,0,-99.99,,,-99.99,,2013-04-04 09:03:00,
2013-04-04 02:13:00,50.0,-99.9,29.83,NNE,30,1.0,3.0,0,-99.99,,,-99.99,,2013-04-04 09:13:00,
2013-04-04 02:23:00,51.0,-99.9,29.80,ENE,60,0.0,3.0,0,-99.99,,,-99.99,,2013-04-04 09:23:00,
2013-04-04 02:34:00,51.0,-99.9,29.80,ENE,60,0.0,3.0,0,-99.99,,,-99.99,,2013-04-04 09:34:00,
2013-04-04 02:44:00,51.0,-99.9,29.80,ENE,60,0.0,3.0,0,-99.99,,,-99.99,,2013-04-04 09:44:00,
2013-04-04 02:54:00,51.0,-99.9,29.80,WSW,245,2.0,3.0,0,-99.99,,,-99.99,,2013-04-04 09:54:00,
2013-04-04 03:04:00,51.0,-99.9,29.81,West,265,0.0,7.0,0,-99.99,,,-99.99,,2013-04-04 10:04:00,
2013-04-04 03:13:00,50.0,-99.9,29.81,ESE,115,0.0,5.0,0,-99.99,,,-99.99,,2013-04-04 10:13:00,
2013-04-04 03:24:00,50.0,-99.9,29.81,ESE,115,0.0,5.0,0,-99.99,,,-99.99,,2013-04-04 10:24:00,
2013-04-04 03:34:00,49.0,-99.9,29.80,SE,140,0.0,1.0,0,-99.99,,,-99.99,,2013-04-04 10:34:00,
2013-04-04 03:43:00,49.0,-99.9,29.80,ESE,115,0.0,1.0,0,-99.99,,,-99.99,,2013-04-04 10:43:00,
2013-04-04 03:54:00,49.0,-99.9,29.80,ESE,115,0.0,1.0,0,-99.99,,,-99.99,,2013-04-04 10:54:00,
2013-04-04 04:03:00,49.0,-99.9,29.79,SSE,160,0.0,1.0,0,-99.99,,,-99.99,,2013-04-04 11:03:00,
2013-04-04 04:12:00,49.0,-99.9,29.79,SSE,165,2.0,5.0,0,-99.99,,,-99.99,,2013-04-04 11:12:00,
2013-04-04 04:13:00,50.0,-99.9,29.77,SSW,205,1.0,3.0,0,-99.99,,,-99.99,,2013-04-04 11:13:00,
2013-04-04 04:23:00,49.0,-99.9,29.79,SSE,165,2.0,5.0,0,-99.99,,,-99.99,,2013-04-04 11:23:00,
2013-04-04 04:33:00,49.0,-99.9,29.79,SSE,165,2.0,5.0,0,-99.99,,,-99.99,,2013-04-04 11:33:00,
2013-04-04 04:55:00,50.0,-99.9,29.77,SSW,205,1.0,3.0,0,-99.99,,,-99.99,,2013-04-04 11:55:00,
2013-04-04 05:03:00,50.0,-99.9,29.77,SSW,205,1.0,3.0,0,-99.99,,,-99.99,,2013-04-04 12:03:00,
2013-04-04 05:44:00,49.0,-99.9,29.74,SSE,150,1.0,2.0,0,-99.99,,,-99.99,,2013-04-04 12:44:00,
2013-04-04 05:53:00,49.0,-99.9,29.74,SSE,150,1.0,2.0,0,-99.99,,,-99.99,,2013-04-04 12:53:00,
2013-04-04 06:03:00,50.0,-99.9,29.72,SE,135,0.0,3.0,0,-99.99,,,-99.99,,2013-04-04 13:03:00,
2013-04-04 06:13:00,51.0,-99.9,29.71,SE,135,2.0,6.0,0,-99.99,,,-99.99,,2013-04-04 13:13:00,
2013-04-04 06:22:00,51.0,-99.9,29.72,SSW,200,3.0,7.0,0,-99.99,,,-99.99,,2013-04-04 13:22:00,
2013-04-04 06:33:00,51.0,-99.9,29.72,SSW,200,3.0,7.0,0,-99.99,,,-99.99,,2013-04-04 13:33:00,
2013-04-04 06:43:00,51.0,-99.9,29.71,ESE,115,0.0,3.0,0,-99.99,,,-99.99,,2013-04-04 13:43:00,
2013-04-04 06:53:00,51.0,-99.9,29.71,ESE,115,0.0,3.0,0,-99.99,,,-99.99,,2013-04-04 13:53:00,
2013-04-04 07:03:00,51.0,-99.9,29.71,ESE,115,0.0,3.0,0,-99.99,,,-99.99,,2013-04-04 14:03:00,
2013-04-04 07:13:00,51.0,-99.9,29.70,SSE,150,3.0,7.0,0,-99.99,,,-99.99,,2013-04-04 14:13:00,
2013-04-04 07:22:00,51.0,-99.9,29.70,SE,125,0.0,13.0,0,-99.99,,,-99.99,,2013-04-04 14:22:00,
2013-04-04 07:33:00,51.0,-99.9,29.70,SE,125,0.0,13.0,0,-99.99,,,-99.99,,2013-04-04 14:33:00,
2013-04-04 07:43:00,53.0,-99.9,29.71,SSE,155,3.0,25.0,0,-99.99,,,-99.99,,2013-04-04 14:43:00,
2013-04-04 07:53:00,53.0,-99.9,29.71,SSE,155,3.0,25.0,0,-99.99,,,-99.99,,2013-04-04 14:53:00,
2013-04-04 08:03:00,53.0,-99.9,29.71,SSE,155,3.0,25.0,0,-99.99,,,-99.99,,2013-04-04 15:03:00,
2013-04-04 08:13:00,53.0,-99.9,29.69,SSW,195,3.0,13.0,0,-99.99,,,-99.99,,2013-04-04 15:13:00,
2013-04-04 08:23:00,53.0,-99.9,29.69,SE,140,3.0,14.0,0,-99.99,,,-99.99,,2013-04-04 15:23:00,
2013-04-04 08:34:00,53.0,-99.9,29.69,SE,140,3.0,14.0,0,-99.99,,,-99.99,,2013-04-04 15:34:00,
2013-04-04 08:43:00,53.0,-99.9,29.70,SSE,160,7.0,12.0,0,-99.99,,,-99.99,,2013-04-04 15:43:00,
2013-04-04 08:54:00,53.0,-99.9,29.70,SSE,160,7.0,12.0,0,-99.99,,,-99.99,,2013-04-04 15:54:00,
2013-04-04 09:03:00,53.0,-99.9,29.69,South,170,8.0,18.0,0,-99.99,,,-99.99,,2013-04-04 16:03:00,
2013-04-04 09:13:00,52.0,-99.9,29.69,South,180,3.0,14.0,0,-99.99,,,-99.99,,2013-04-04 16:13:00,
2013-04-04 09:25:00,52.0,-99.9,29.68,SSE,160,2.0,15.0,0,-99.99,,,-99.99,,2013-04-04 16:25:00,
2013-04-04 09:33:00,52.0,-99.9,29.68,SSE,160,2.0,15.0,0,-99.99,,,-99.99,,2013-04-04 16:33:00,
2013-04-04 09:43:00,52.0,-99.9,29.67,SSW,200,6.0,17.0,0,-99.99,,,-99.99,,2013-04-04 16:43:00,
2013-04-04 09:55:00,53.0,-99.9,29.66,SSE,150,9.0,18.0,0,-99.99,,,-99.99,,2013-04-04 16:55:00,
2013-04-04 10:03:00,53.0,-99.9,29.66,SSE,150,9.0,18.0,0,-99.99,,,-99.99,,2013-04-04 17:03:00,
2013-04-04 10:14:00,54.0,-99.9,29.67,SE,135,7.0,20.0,0,-99.99,,,-99.99,,2013-04-04 17:14:00,
2013-04-04 10:23:00,54.0,-99.9,29.67,South,170,3.0,14.0,0,-99.99,,,-99.99,,2013-04-04 17:23:00,
2013-04-04 10:33:00,54.0,-99.9,29.67,South,170,3.0,14.0,0,-99.99,,,-99.99,,2013-04-04 17:33:00,
2013-04-04 10:43:00,53.0,-99.9,29.68,South,190,20.0,29.0,0,-99.99,,,-99.99,,2013-04-04 17:43:00,
2013-04-04 10:53:00,51.0,-99.9,29.69,SE,135,5.0,25.0,0,-99.99,,,-99.99,,2013-04-04 17:53:00,
2013-04-04 11:02:00,51.0,-99.9,29.69,SE,135,5.0,25.0,0,-99.99,,,-99.99,,2013-04-04 18:02:00,